Regional Weather Roundup
Issued by NWS

Home | Current Version | Previous Version | Text Only | Print | Product List | Glossary On
Versions: 1 2 3 4 5 6 7 8 9 10 11 12 13 14 15 16 17 18 19 20 21 22 23 24 25 26 27 28 29 30 31 32 33 34 35 36 37 38 39 40 41 42 43 44 45 46 47 48 49 50
000
ASUS44 KFWD 280615
RWRTX
NORTH TEXAS HOURLY WEATHER ROUNDUP
NATIONAL WEATHER SERVICE FORT WORTH TX
1200 AM CST SAT FEB 28 2015

NOTE: "FAIR" INDICATES FEW OR NO CLOUDS BELOW 12,000 FEET WITH NO
SIGNIFICANT WEATHER AND/OR OBSTRUCTIONS TO VISIBILITY.

TXZ118-119-280700-
DALLAS/FORT WORTH METROPLEX

CITY           SKY/WX    TMP DP  RH WIND       PRES   REMARKS
DFW AIRPORT    SLEET     26  23  88 NE8       30.42F FOG     WCI  18
6HR MIN TEMP:  26; 6HR MAX TEMP:  26; 6HR PCP:  0.04;

DALLAS LOVE    FRZ RAIN  27  23  85 NE6       30.44S FOG     WCI  20
6HR MIN TEMP:  27; 6HR MAX TEMP:  27; 6HR PCP:  0.04;

FTW MEACHAM    CLOUDY    27  23  85 NE8       30.42F WCI  19
6HR MIN TEMP:  25; 6HR MAX TEMP:  27; 6HR PCP: TRACE;

DAL-EXECUTIVE  MIX PCPN  26  23  88 NE9       30.41F WCI  17
6HR MIN TEMP:  26; 6HR MAX TEMP:  27; 6HR PCP:  0.01;

FTW-ALLIANCE   LGT SNOW  24  22  91 NE8       30.42F FOG     WCI  15
6HR MIN TEMP:  23; 6HR MAX TEMP:  24; 6HR PCP:  0.03;

FTW-SPINKS     CLOUDY    27  24  89 NE6       30.43F WCI  20
6HR MIN TEMP:  26; 6HR MAX TEMP:  27; 6HR PCP:  0.02;

ARLINGTON      MIX PCPN  28  22  78 NE10      30.42F WCI  19
6HR MIN TEMP:  27; 6HR MAX TEMP:  28; 6HR PCP:  0.02;

GRAND PRAIRIE  MOCLDY    27  26  94 N7        30.45S WCI  20
6HR MIN TEMP:  26; 6HR MAX TEMP:  27;

ADDISON        FLURRIES  27  24  87 NE7       30.45R WCI  20
6HR MIN TEMP:  27; 6HR MAX TEMP:  28;

MESQUITE       CLOUDY    27  24  88 CALM      30.44F
6HR MIN TEMP:  27; 6HR MAX TEMP:  27;

LANCASTER      CLOUDY    27  22  84 NE6       30.44F WCI  20
6HR MIN TEMP:  26; 6HR MAX TEMP:  28;

$$

TXZ091>094-102>105-117-120-121-131>134-280700-
NORTH CENTRAL TEXAS

CITY           SKY/WX    TMP DP  RH WIND       PRES   REMARKS
SHRMAN/DENISON CLOUDY    24  23  96 NE7       30.45F WCI  16
6HR MIN TEMP:  24; 6HR MAX TEMP:  25;

GAINESVILLE    CLOUDY    22  19  88 N6        30.46F WCI  14
6HR MIN TEMP:  21; 6HR MAX TEMP:  22;

BOWIE          FLURRIES  21  19  92 E5        30.40F WCI  15
6HR MIN TEMP:  20; 6HR MAX TEMP:  21;

BRIDGEPORT     FLURRIES  22  22  99 NE5       30.44F WCI  16
6HR MIN TEMP:  22; 6HR MAX TEMP:  23; 6HR PCP:  0.02;

DECATUR        LGT SNOW  22  20  94 NE10      30.40F WCI  11
6HR MIN TEMP:  21; 6HR MAX TEMP:  22;

DENTON         LGT SNOW  23  20  88 NE10      30.43F FOG     WCI  12
6HR MIN TEMP:  23; 6HR MAX TEMP:  24; 6HR PCP: TRACE;

MCKINNEY       LGT SNOW  26  23  88 NE7       30.44F FOG     WCI  18
6HR MIN TEMP:  25; 6HR MAX TEMP:  26; 6HR PCP:  0.01;

GREENVILLE     CLOUDY    28  25  86 NE6       30.44F WCI  22
TERRELL        MIX PCPN  29  23  78 NE8       30.43F WCI  21
6HR MIN TEMP:  29; 6HR MAX TEMP:  29; 6HR PCP: TRACE;

WAXAHACHIE     CLOUDY    26  25  94 NE6       30.42F WCI  20
6HR MIN TEMP:  26; 6HR MAX TEMP:  27;

CLEBURNE       FLURRIES  27  25  93 NE8       30.41F WCI  18
GRANBURY       CLOUDY    27  24  87 NE5       30.42F WCI  22
6HR MIN TEMP:  26; 6HR MAX TEMP:  28; 6HR PCP:  0.04;

$$

TXZ083>090-098>101-113>116-127>130-139>142-154-155-280700-
WESTERN NORTH TEXAS

CITY           SKY/WX    TMP DP  RH WIND       PRES   REMARKS
WICHITA FALLS  CLOUDY    20  15  81 E8        30.42F WCI  10
6HR MIN TEMP:  19; 6HR MAX TEMP:  20; 6HR PCP: TRACE;

WF-KICKAPOO    CLOUDY    22  19  88 NE7       30.44S WCI  14
6HR MIN TEMP:  21; 6HR MAX TEMP:  22;

VERNON         CLOUDY    20  14  77 E8        30.42F WCI  10
6HR MIN TEMP:  19; 6HR MAX TEMP:  58;

ABILENE        CLOUDY    20  19  96 E7        30.33F FOG     WCI  11
6HR MIN TEMP:  19; 6HR MAX TEMP:  21;

ABILENE-DYESS  FRZ DRZL  20  18  92 E6        30.32F FOG     WCI  12
6HR MIN TEMP:  19; 6HR MAX TEMP:  20; 6HR PCP: TRACE;

BRECKENRIDGE   MIX PCPN  23  23  98 E5        30.37F WCI  17
6HR MIN TEMP:  23; 6HR MAX TEMP:  23;

GRAHAM         FLURRIES  21  20  96 NE3       30.38F
6HR MIN TEMP:  21; 6HR MAX TEMP:  21;

MINERAL WELLS  FRZ RAIN  23  20  88 NE6       30.39F FOG     WCI  16
6HR MIN TEMP:  22; 6HR MAX TEMP:  23; 6HR PCP:  0.06;

STEPHENVILLE   CLOUDY    24  23  93 NE5       30.39F WCI  19
6HR MIN TEMP:  24; 6HR MAX TEMP:  24;

COMANCHE       CLOUDY    25  25 100 E8        30.35F FOG     WCI  16
6HR MIN TEMP:  23; 6HR MAX TEMP:  25;

BROWNWOOD      CLOUDY    25  25 100 NE7       30.36R FOG     WCI  17
COLEMAN        CLOUDY    24  24 100 NE7       30.33F FOG     WCI  16
6HR MIN TEMP:  23; 6HR MAX TEMP:  24;

BRADY          CLOUDY    25  23  93 NE7       30.30R FOG     WCI  17
$$

TXZ143>147-156>162-174-175-280700-
CENTRAL TEXAS

CITY           SKY/WX    TMP DP  RH WIND       PRES   REMARKS
WACO           CLOUDY    28  25  88 NE9       30.39F WCI  19
6HR MIN TEMP:  28; 6HR MAX TEMP:  29; 6HR PCP:  0.02;

WACO-MCGREGOR    N/A     28  21  74 NE8       30.39F WCI  20
6HR MIN TEMP:  28; 6HR MAX TEMP:  30;

HILLSBORO      MIX PCPN  28  24  84 N8        30.40S WCI  20
6HR MIN TEMP:  28; 6HR MAX TEMP:  29;

CORSICANA      CLOUDY    30  23  75 NE7       30.41F WCI  23
6HR MIN TEMP:  30; 6HR MAX TEMP:  33; 6HR PCP: TRACE;

MEXIA          CLOUDY    30  24  79 MISG      30.37F
6HR MIN TEMP:  30; 6HR MAX TEMP:  32;

HEARNE         LGT RAIN  34  25  69 N7        30.40S WCI  28
6HR MIN TEMP:  34; 6HR MAX TEMP:  36;

CAMERON        MIX PCPN  32  28  87 NE9       30.36F WCI  24
6HR MIN TEMP:  32; 6HR MAX TEMP:  36;

TEMPLE         CLOUDY    28  21  74 N10       30.35F WCI  19
6HR MIN TEMP:  28; 6HR MAX TEMP:  30;

KILLEEN        CLOUDY    27  26  95 NE13      30.33F WCI  16
6HR MIN TEMP:  27; 6HR MAX TEMP:  29; 6HR PCP: TRACE;

KILLEEN-SKYLRK CLOUDY    28  21  74 N9        30.33F WCI  20
6HR MIN TEMP:  28; 6HR MAX TEMP:  30;

FORT HOOD      CLOUDY    28  26  93 NE9       30.34F WCI  19
6HR MIN TEMP:  28; 6HR MAX TEMP:  29; 6HR PCP:  0.01;

GATESVILLE     CLOUDY    30  27  86 CALM      30.39S
HAMILTON       CLOUDY    27  27 100 NE8       30.36S FOG     WCI  18
6HR MIN TEMP:  26; 6HR MAX TEMP:  27;

LAMPASAS       CLOUDY    28  27  95 NE8       30.32F FOG     WCI  20
6HR MIN TEMP:  28; 6HR MAX TEMP:  29;

$$

TXZ095>097-106>112-122>126-135>138-148>153-164>167-280700-
EAST TEXAS

CITY           SKY/WX    TMP DP  RH WIND       PRES   REMARKS
PARIS          CLOUDY    27  21  80 NE8       30.46F WCI  18
6HR MIN TEMP:  27; 6HR MAX TEMP:  27;

SULPHUR SPRNGS CLOUDY    28  25  87 E8        30.47S WCI  20
6HR MIN TEMP:  28; 6HR MAX TEMP:  28; 6HR PCP:  0.01;

MOUNT PLEASANT CLOUDY    30  22  70 NE7       30.47F WCI  23
6HR MIN TEMP:  30; 6HR MAX TEMP:  31;

GILMER         CLOUDY    30  20  67 NE7       30.43F WCI  23
6HR MIN TEMP:  29; 6HR MAX TEMP:  30;

MINEOLA        CLOUDY    30  27  86 E3        30.44F
TYLER          CLOUDY    31  21  66 E10       30.41F WCI  22
6HR MIN TEMP:  30; 6HR MAX TEMP:  31; 6HR PCP: TRACE;

LONGVIEW       CLOUDY    32  21  64 NE7       30.43F WCI  26
6HR MIN TEMP:  31; 6HR MAX TEMP:  32;

MARSHALL       CLOUDY    33  22  64 E3        30.47F
6HR MIN TEMP:  33; 6HR MAX TEMP:  33;

ATHENS         MIX PCPN  30  21  69 E8        30.40F WCI  23
PALESTINE      CLOUDY    32  23  69 NE8       30.41S WCI  25
JACKSONVILLE   CLOUDY    32  23  70 NE8       30.40F WCI  25
HENDERSON      CLOUDY    32  22  67 NE7       30.43F WCI  26
6HR MIN TEMP:  32; 6HR MAX TEMP:  32;

NACOGDOCHES    CLOUDY    34  21  60 E5        30.40F WCI  30
6HR MIN TEMP:  34; 6HR MAX TEMP:  36;

LUFKIN         CLOUDY    39  25  57 NE6       30.39F WCI  35
6HR MIN TEMP:  38; 6HR MAX TEMP:  40;

$$

SUPPLEMENTAL OBSERVATIONS (CENTRAL)

CITY           SKY/WX    TMP DP  RH WIND       PRES   REMARKS
$$

SUPPLEMENTAL OBSERVATIONS (WEST)

CITY           SKY/WX    TMP DP  RH WIND       PRES   REMARKS
$$

SUPPLEMENTAL OBSERVATIONS (EAST)

CITY           SKY/WX    TMP DP  RH WIND       PRES   REMARKS
$$

SUPPLEMENTAL OBSERVATIONS ARE A COLLECTION OF AUTOMATED INSTRUMENTS
THAT ARE MAINTAINED BY A VARIETY OF FEDERAL AND STATE AGENCIES.
CERTAIN ELEMENTS...SUCH AS HUMIDITY VALUES AND SUSTAINED WIND
SPEEDS...MAY BE APPROXIMATED.




USA.gov is the U.S. government's official web portal to all federal, state and local government web resources and services.